Terug naar catalogus

COSMOS 1660 DEB

ActiefLEO
NORAD 43313·DEBRIS·🇷🇺 Russia

Gelanceerd Jun 14, 1985 vanaf Plesetsk Cosmodrome

Loading…

Volgende Passages (komende 24 uur)

TLE

VerouderdSource: Space-Track

Epoch: Aug 31, 2026, 22:02 UTC

1 43313U 85047CE  26243.91846160 -.00000005  00000-0  91731-4 0  9991
2 43313  73.6255  81.7767 0027430 318.6948 107.5268 12.41080084816883

Volg COSMOS 1660 DEB in realtime met AllMySat

Download on the App Store